全球星 M038星 (GLOBALSTAR M038)

导读 | 星芒AI

GLOBALSTAR M038 是 Globalstar 卫星通信公司运营的一颗低轨道(LEO)卫星,属于其第二代卫星星座计划(Globalstar 2)。该卫星主要用于提供移动语音和数据通信服务,支持偏远地区的用户接入。M038 采用先进通信技术,提高信号传输效率和系统稳定性。它运行在约 1,414 公里的轨道高度,与其他卫星协同工作,实现全球覆盖。该卫星的部署增强了 Globalstar 在海事、航空和陆地移动通信领域的服务能力。

基本信息
目录编号:
25624
目录名称:
GLOBALSTAR M038
国际标识:
1999-004D
轨道中心:
EARTH
卫星名称:
全球星 M038星
卫星全名:
全球星 M038星 (GLOBALSTAR M038)
卫星状态:
在轨 (已飞行9807 天)
发射日期:
1999-02-09 UTC
国别 :
(GLOB)
星等 :
--
轨道信息
数据来源 国际轨道数据 AOE轨道数据
星历时间 2025-12-15T14:55:44+0800
18小时前
查看轨道信息
2025-12-13T15:00:00+0800
2天前
查看轨道信息
半长轴 7916.535km 7916.536km
偏心率 0.0002591 0.0002423
轨道倾角 51.998° 51.998°
近地点辐角 65.450° 62.455°
升交点赤经 270.016° 275.768°
平近点角 108.648° 246.351°
近地点 1536.348km 1536.482km
远地点 1540.452km 1540.32km
周期 116.832分钟 116.832分钟
每日圈数 12.325374 12.325371
详细信息
固有亮度:
5
最大亮度:
7.9
平衡模式:
三轴稳定
覆盖范围:
全球
运营商:
全球星公司
运营商所在国:
美国
使用方式:
暂无
卫星简介
全球星星座由48颗卫星加8颗备份星组成。这些卫星分布在8个倾角为52度的圆形轨道平面上,每个轨道平面6颗卫星,另有1 颗备用星。轨道高度约为1414km,传输时延和处理时延小于300ms,整个系统的覆盖区为南北纬70度以内的地区。该卫星仍在工作。
2D轨道图
3D轨道图
轨道高度分析图
轨道倾角分析图
轨道综合分析图
查看轨道综合分析图